Location: Newark
(45.4422°N, 16.2769°E)
Time: 06:31:44
(UTC+00:00)

Vanguard 2 - Pass Details

Date: 11 December 2019
Orbit: 553 x 2938 km, 32.9° (Epoch: 27 January)

Event Time Altitude Azimuth Distance (km) Brightness Sun altitude
Rises 21:53:05 0° 197° (SSW) 5,267 - -64.9°
Reaches altitude 10° 21:57:17 10° 184° (S) 4,639 - -65.3°
Maximum altitude 22:07:02 23° 138° (SE) 4,291 - -66.1°
Drops below altitude 10° 22:18:48 10° 95° (E) 5,731 - -66.8°
Exits shadow 22:22:37 - 87° (E) 6,399 12.1 -67.0°
Sets 22:24:47 0° 84° (E) 6,794 12.3 -67.1°
